This demonstration page uses our WeatherBlox Daily Observations layout. Learn more.

Left ArrowRight Arrow

44.8408, -93.29828

Hourly Observations for July 20, 2016

Temp ( °F °C ) Dew Point ( °F °C ) Humidity (%) Winds ( mph kmh ) Pressure ( in mb ) Visibility ( mi km ) Precip ( " mm )
12:53 am 00:53 Mostly Clear 73 22.8 67 19.4 81 81 SE 7 11 30.10 1019 10 16 0.00 0.00
1:53 am 01:53 Mostly Clear 73 22.8 68 20 84 84 S 8 13 30.08 1019 10 16 0.00 0.00
2:53 am 02:53 Partly Cloudy 72 22.2 67 19.4 84 84 SSE 8 13 30.07 1018 10 16 0.00 0.00
3:53 am 03:53 Mostly Cloudy 72 22.2 67 19.4 84 84 SSE 8 13 30.05 1018 10 16 0.00 0.00
4:53 am 04:53 Mostly Cloudy 73 22.8 67 19.4 81 81 S 9 15 30.03 1017 10 16 0.00 0.00
5:53 am 05:53 Cloudy 73 22.8 67 19.4 81 81 S 10 17 30.01 1016 10 16 0.00 0.00
6:53 am 06:53 Mostly Cloudy 73 22.8 68 20 84 84 SE 8 13 30.01 1016 10 16 0.00 0.00
7:53 am 07:53 Mostly Cloudy 75 23.9 68 20 79 79 SSE 9 15 30.02 1017 10 16 0.00 0.00
8:17 am 08:17 Mostly Cloudy with Thunderstorms 75 23.9 69 20.6 82 82 SSE 8 13 29.97 1015 9 14 0.00 0.03
8:41 am 08:41 Mostly Cloudy with Nearby Thunderstorms 75 23.9 70 21.1 84 84 S 10 17 29.97 1015 10 16 0.05 1.27
8:53 am 08:53 Mostly Cloudy with Nearby Thunderstorms 76 24.4 71 21.7 85 85 SSE 12 19 30.01 1016 10 16 0.05 1.27
9:03 am 09:03 Mostly Cloudy with Thunderstorms 75 23.9 71 21.7 88 88 SSE 12 19 29.97 1015 7 11 0.00 0.03
9:26 am 09:26 Mostly Cloudy 77 25 72 22 83 83 VRB 6 9 29.97 1015 10 16 0.00 0.00
9:53 am 09:53 Mostly Cloudy 79 26.1 72 22.2 79 79 SSE 9 15 29.99 1016 10 16 0.00 0.03
10:53 am 10:53 Mostly Cloudy with Light Rain 80 26.7 72 22.2 76 76 S 12 19 29.98 1015 10 16 0.00 0.03
11:53 am 11:53 Partly Cloudy 85 29.4 72 22.2 65 65 S 10 17 29.97 1015 10 16 0.00 0.03
12:53 pm 12:53 Mostly Sunny 89 31.7 74 23.3 61 61 S 14 22 29.94 1014 10 16 0.00 0.00
1:53 pm 13:53 Mostly Sunny 91 32.8 74 23.3 57 57 SSE 15 24 29.94 1014 10 16 0.00 0.00
2:53 pm 14:53 Mostly Sunny 92 33.3 74 23.3 56 56 S 14 22 29.93 1014 10 16 0.00 0.00
3:53 pm 15:53 Mostly Sunny 92 33.3 74 23.3 56 56 SSE 17 28 29.93 1013 10 16 0.00 0.00
4:53 pm 16:53 Partly Cloudy 89 31.7 76 24.4 65 65 SSE 15 24 29.93 1013 10 16 0.00 0.00
5:53 pm 17:53 Partly Cloudy 88 31 75 24 66 66 SE 16 26 29.91 1013 10 16 0.00 0.00
6:53 pm 18:53 Partly Cloudy 88 31.1 77 25 70 70 SSE 13 20 29.91 1013 10 16 0.00 0.00
7:53 pm 19:53 Mostly Cloudy 88 31.1 77 25 70 70 S 14 22 29.89 1012 10 16 0.00 0.00
8:53 pm 20:53 Mostly Cloudy 87 30.6 77 25 72 72 S 16 26 29.88 1012 10 16 0.00 0.00
9:13 pm 21:13 Partly Cloudy 86 30 77 25 75 75 S 13 20 29.88 1012 10 16 0.00 0.00
9:53 pm 21:53 Partly Cloudy 85 29.4 77 25 77 77 S 15 24 29.89 1012 10 16 0.00 0.00
10:53 pm 22:53 Mostly Clear 84 28.9 77 25 80 80 S 10 17 29.89 1012 10 16 0.00 0.00
11:53 pm 23:53 Mostly Clear 84 28.9 77 25 80 80 S 9 15 29.88 1012 10 16 0.00 0.00

Powered by AerisWeather